STARLINK-1030, 44735

Orbit data source: Space-Track

STARLINK-1030, 44735 is a payload satellite owned by SpaceX/Seattle (US) in LEO that was launched on Mon, 11 Nov 2019 UTC via an FALCON 9 launch vehicle from the Air Force Eastern Test Range (AFETR). Payloads include a variety of satellites, spacecraft, and rockets equipped with specific instruments for various scientific and technological missions. These include communications satellites like Starlink; space stations such as the ISS; scientific satellites like the Hubble; Earth observation satellites from companies like Planet Labs, Umbra, and HawkEye 360; GPS; miniature CubeSats for education and research; and military/defense satellites.

Loading next visibility...
STARLINK-1030 details
Identifier
44735, 2019-074Y
Orbit
LEO
Last TLE update11 hours ago
Origin
Flag of USSpaceX/Seattle (US)
ManufacturerSpaceX/Seattle
MissionOperational Commercial Communications
Bus & MotorSTARLINK, Unknown motor
Mass260 kg wet, ~248 kg dry
Launch date (UTC)
2019-11-11 (5 years ago)
Launch vehicle
FALCON 9
Launch site
Air Force Eastern Test Range (AFETR)
Object type
Payload
Rocket body
Debris
Shape & HBRBox + 1 Pan, 8.86 m
Radar Cross Section13.562 m², Large (>1 m²)

Expand to show TLE details & history

TLE from 11 hours ago
0 STARLINK-1030
1 44735U 19074Y   24361.32698864  .00018847  00000-0  12802-2 0  9999
2 44735  53.0564  14.5065 0001528  96.6596 263.4567 15.06416374282390
Epoch: 2024-12-26T07:50Z
Definitive object data (Epoch: 2024-12-26T07:50:51.818Z)
Latitude-0.00002°
Longitude161.4826°
Altitude548.161 km
Speed7.589 km/s
True Right ascension00h 58m 01s
True Declination0° 00' 00"
Sunlit
Object was in daylight at TLE epoch
Visualization TLE readout
Latitude23.0978°
Longitude177.97354°
Altitude547.47 km
Speed7.592 km/s
Apparent Right ascension03h 57m 22s
Apparent Declination-8° 14' 08"
Sunlit
Object is in full shadow
Visualization observer readout
Local Sidereal Time18:29:59
Azimuth57.499° ENE
Elevation-43.537°
Doppler factor1
Orbital elements
Apogee altitude548.49 km
Perigee altitude546.374 km
Semi-major axis6,925.569 km
Eccentricity0.0001528
Inclination53.0564°
RAAN14.5065°
Arg. of periapsis96.6596°
True anomaly263.4393°
Mean anomaly263.4567°
Eccentric anomaly263.448°
Mean motion3.76582 °/min
BSTAR0.0012802
Orbital period95.6 mins
Loading maneuver chart data...

STARLINK-1030 Visibility forecast

Observer location: undefined°, undefined

Span
Click to sort rows by Start time (UTC) header in descending order
Start Az.
Max El. time (UTC)
Max El. Az.
Max El.
End time (UTC)
End Az.
7 mins2024-12-27 03:06:22.863Z197.061° SSW2024-12-27 03:09:22.863Z146.33° SSE29.861°2024-12-27 03:13:22.863Z66.522° ENE
5 mins2024-12-27 04:47:22.863Z279.803° WNW2024-12-27 04:49:22.863Z332.764° NNW30.015°2024-12-27 04:52:22.863Z32.285° NE
6 mins2024-12-27 09:48:22.863Z328.911° NNW2024-12-27 09:51:22.863Z43.256° NE32.431°2024-12-27 09:54:22.863Z99.679° ESE
5 mins2024-12-27 11:28:22.863Z276.82° WNW2024-12-27 11:30:22.863Z233.051° WSW26.684°2024-12-27 11:33:22.863Z172.945° S
|